Flag for Australia Weather past 2 weeks in Darwin, Northern Territory, Australia

Now
77 °F

Rain. Partly cloudy.


Feels Like: 78 °F
Forecast: 76 / 86 °F
Wind: 8 mph from South

Location: Darwin Airport

Current Time: Mar 2, 2015 at 9:11:06 PM

Latest Report: Mar 2, 2015 at 8:30 PM


Visibility: 3 mi

Pressure: 29.68 "Hg

Humidity: 94%

Dew point: 75 °F

Location of DarwinLocation

Historic Weather in Darwin — Graph

°F

Darwin temperature yesterday

Maximum temperature yesterday: 90 °F (at 11:30 AM)
Minimum temperature yesterday: 79 °F (at 3:23 PM)
Average temperature yesterday: 84 °F

Past Weeks' High & Low Weather Summary

 TemperatureHumidityPressure
High93 °F (Feb 18, 3:00 PM)100% (Feb 15, 11:30 PM)29.86 "Hg (Feb 15, 11:30 PM)
Low72 °F (Feb 20, 5:30 AM)59% (Feb 18, 5:00 PM)29.59 "Hg (Feb 18, 6:00 PM)
Average83 °F83%29.73 "Hg
* Reported Feb 15 7:30 PM — Mar 2 7:30 PM, Darwin, Weather by CustomWeather, © 2015

Note: Actual official high and low records may vary slightly from our data, if they occured in-between our weather recording intervals... More about our weather records

Advertising

Darwin weather history for previous 24 hours

 ConditionsComfort  
Time TempWeatherWind HumidityBarometerVisibility
7:30 PM
Mon, Mar 2
77 °FLight rain. More clouds than sun.7 mph94%29.65 "HgN/A
7:00 PM77 °FMostly cloudy.7 mph94%29.62 "HgN/A
6:30 PM77 °FBroken clouds.7 mph94%29.62 "HgN/A
6:00 PM77 °FRain. Overcast.2 mph94%29.62 "Hg3 mi
5:30 PM77 °FLight rain. Overcast.7 mph94%29.62 "HgN/A
5:00 PM75 °FLight rain. More clouds than sun.12 mph100%29.62 "HgN/A
4:30 PM77 °FHeavy rain. Low clouds.10 mph94%29.65 "Hg3 mi
4:00 PM79 °FRain. Overcast.12 mph94%29.65 "Hg3 mi
3:30 PM79 °FRain. Partly sunny.10 mph94%29.62 "HgN/A
3:00 PM79 °FBroken clouds.9 mph94%29.65 "HgN/A
2:30 PM79 °FSprinkles. Broken clouds.16 mph94%29.65 "HgN/A
1:30 PM82 °FThundershowers. Broken clouds.13 mph79%29.65 "HgN/A
1:00 PM84 °FScattered showers. Broken clouds.17 mph74%29.68 "HgN/A
12:30 PM84 °FBroken clouds.13 mph74%29.68 "HgN/A
12:00 PM84 °FBroken clouds.12 mph79%29.71 "HgN/A
11:30 AM84 °FPartly sunny.9 mph79%29.71 "HgN/A
11:00 AM82 °FSprinkles. Broken clouds.7 mph84%29.71 "HgN/A
10:30 AM81 °FSprinkles. Scattered clouds.10 mph84%29.71 "HgN/A
10:00 AM84 °FScattered clouds.12 mph89%29.74 "HgN/A
9:30 AM84 °FBroken clouds.3 mph84%29.71 "HgN/A
9:00 AM84 °FThundershowers. Partly sunny.6 mph89%29.71 "HgN/A
8:30 AM82 °FPartly sunny.6 mph94%29.71 "HgN/A
7:30 AM82 °FBroken clouds.6 mph89%29.68 "HgN/A
7:00 AM82 °FPartly cloudy.3 mph89%29.68 "HgN/A
6:30 AM82 °FPartly cloudy.6 mph89%29.68 "HgN/A
6:00 AM82 °FPartly cloudy.7 mph89%29.65 "HgN/A
5:30 AM82 °FPartly cloudy.7 mph89%29.65 "HgN/A
5:00 AM82 °FPassing clouds.7 mph89%29.65 "HgN/A
4:30 AM82 °FPassing clouds.7 mph89%29.65 "HgN/A
4:00 AM81 °FClear.8 mph94%29.65 "Hg10 mi
3:30 AM81 °FOvercast.5 mph94%29.65 "HgN/A
3:00 AM81 °FClear.3 mph94%29.65 "Hg10 mi
2:30 AM81 °FClear.6 mph94%29.68 "Hg10 mi
2:00 AM81 °FClear.7 mph94%29.68 "Hg10 mi
1:30 AM82 °FClear.8 mph89%29.71 "Hg10 mi
12:30 AM81 °FPassing clouds.3 mph94%29.74 "HgN/A
12:00 AM82 °FPassing clouds.8 mph89%29.71 "HgN/A
11:30 PM
Sun, Mar 1
82 °FPassing clouds.7 mph89%29.74 "HgN/A
11:00 PM82 °FLight rain. Overcast.8 mph89%29.74 "HgN/A
10:30 PM81 °FLight rain. Overcast.7 mph100%29.71 "HgN/A
10:18 PM81 °FRain. Overcast.1 mph94%29.74 "Hg6 mi
9:30 PM82 °FLight rain. Passing clouds.5 mph89%29.74 "Hg6 mi
9:00 PM82 °FLight rain. Passing clouds.6 mph89%29.74 "HgN/A
Weather by CustomWeather, © 2015

See weather overviewHow to use our weather pages